Location: Santa Giusta
(39.8800°N, 8.6069°E)
Time: 17:44:11
(UTC+00:00)

CZ-4 R/B - Pass Details

Date: 02 February 2023
Orbit: 526 x 586 km, 97.7° (Epoch: 31 March)

Event Time Altitude Azimuth Distance (km) Brightness Sun altitude
Rises 17:59:01 0° 145° (SE) 2,805 4.7 -14.3°
Reaches altitude 10° 18:01:18 10° 136° (SE) 1,904 3.7 -14.8°
Maximum altitude 18:05:03 34° 72° (ENE) 964 2.0 -15.5°
Drops below altitude 10° 18:08:46 10° 7° (N) 1,892 3.9 -16.2°
Sets 18:11:02 0° 358° (N) 2,784 4.9 -16.6°
